Regional Weather Roundup
Issued by NWS Sterling, VA

Home | Current Version | Previous Version | Text Only | Print | Product List | Glossary On
Versions: 1 2 3 4 5 6 7 8 9 10 11 12 13 14 15 16 17 18 19 20 21 22 23 24 25 26 27 28 29 30 31 32 33 34 35 36 37 38 39 40 41 42 43 44 45 46 47 48 49 50
000
ASUS41 KLWX 282010
RWRLWX

REGIONAL WEATHER ROUNDUP
NATIONAL WEATHER SERVICE BALTIMORE MD/WASHINGTON DC
300 PM EST WED JAN 28 2015

Note: "FAIR" indicates few or no clouds below 12,000 feet
with no significant weather and/or obstructions to visibility.
 TC=TEMPERATURE CELSIUS

 * =Non NWS site. Station does not report precipitation (e.g. rain,
    snow, etc.), thunder, or fog.

DCZ001-MDZ009-015-VAZ040>042-051-053>054-282100-
WASHINGTON METRO

CITY           SKY/WX    TMP DP  RH WIND       PRES   REMARKS
WASHINGTON NAT SUNNY     38   7  27 NW14G22   30.24R
DULLES         SUNNY     34   7  32 NW17G24   30.23S WCI  23
ANDREWS AFB    SUNNY     34   7  32 NW15      30.21R WCI  24
FT BELVOIR     SUNNY     35   7  30 NW16G25   30.24S WCI  26
QUANTICO       SUNNY     38   6  26 N16G25    30.25R WCI  29
LEESBURG*      SUNNY     34  12  40 NW18      30.23F WCI  23
MANASSAS*      SUNNY     37   7  28 MISG        N/A
GAITHERSBURG*  SUNNY     30   9  40 NW14      30.25R WCI  20

$$

MDZ006>007-011-014-282100-
BALTIMORE METRO

CITY           SKY/WX    TMP DP  RH WIND       PRES   REMARKS
BWI AIRPORT    SUNNY     36   6  28 NW16      30.20R WCI  26
MD SCIENCE CTR   N/A     35   1  23 MISG      30.21R
MARTIN STATE   SUNNY     37   7  28 NW14G20   30.20R WCI  29
ANNAPOLIS      SUNNY     36   7  29 NW13G20   30.20R WCI  27
FORT MEADE*    SUNNY     36   7  30 NW14G20   30.23R WCI  27

$$

MDZ012-015-019>023-282100-
MARYLAND EASTERN SHORE

CITY           SKY/WX    TMP DP  RH WIND       PRES   REMARKS
OCEAN CITY     SUNNY     37   8  30 N14       30.14R WCI  28
SALISBURY      SUNNY     38   8  29 NW15      30.15R
CAMBRIDGE*     SUNNY     37   9  30 NW14G20   30.17S WCI  29
EASTON*        SUNNY     37  10  32 NW13G21   30.21S

$$

MDZ017>025-282100-
SOUTHERN MARYLAND

CITY           SKY/WX    TMP DP  RH WIND       PRES   REMARKS
PATUXENT RIVER SUNNY     36   8  31 NW21      30.19R WCI  25
ST INIGOES     SUNNY     37   7  28 W16       30.19R WCI  28
LEONARDTOWN*   NOT AVBL

$$

MDZ003>005-282100-
NORTH CENTRAL MARYLAND

CITY           SKY/WX    TMP DP  RH WIND       PRES   REMARKS
FREDERICK*       N/A     36   3  25 NW15G23   30.25S WCI  26
HAGERSTOWN APT SUNNY     32   5  32 NW13      30.22S WCI  22
WESTMINSTER*   SUNNY     30   3  31 NW15G21   30.18R WCI  19

$$

MDZ501>502-282100-
WESTERN MARYLAND

CITY           SKY/WX    TMP DP  RH WIND       PRES   REMARKS
OAKLAND*       SUNNY     19  12  73 CALM      30.15F
CUMBERLAND*    SUNNY     32   3  29 N10G17    30.30S WCI  24

$$

VAZ025>031-282100-
SHENANDOAH VALLEY

CITY           SKY/WX    TMP DP  RH WIND       PRES   REMARKS
WINCHESTER*    SUNNY     34   1  25 NW13G22   30.22S WCI  25
FRONT ROYAL*   FAIR      36   5  27 N10       30.21S WCI  28
LURAY*         FAIR      41   7  24 NW9       30.21S
NEW MARKET*    FAIR      35   4  27 NE7       30.22S
STAUNTON*      FAIR      38   5  26 NE5       30.22S
WAYNESBORO*    FAIR      35   7  31 N10       30.19R WCI  27

$$

WVZ021-048>050-054>055-282100-
EASTERN WEST VIRGINIA PANHANDLE

CITY           SKY/WX    TMP DP  RH WIND       PRES   REMARKS
MARTINSBURG    SUNNY     35   6  29 NW12      30.24R WCI  27
PETERSBURG*    SUNNY     34  -1  23 N9        30.27R WCI  26

$$

VAZ036>039-050-282100-
CENTRAL FOOTHILLS

CITY           SKY/WX    TMP DP  RH WIND       PRES   REMARKS
CHARLOTTESVILL SUNNY     41  -1  17 N9        30.21S
CULPEPER*      SUNNY     39   1  20 N12       30.23R
ORANGE*        SUNNY     43   3  19 N13       30.22S
GORDONSVILLE*  FAIR      41   0  18 NW6       30.20S
WARRENTON*     FAIR      40  14  34 N10       30.22R

$$

VAZ055>057-282100-
NORTH AND CENTRAL PIEDMONT

CITY           SKY/WX    TMP DP  RH WIND       PRES   REMARKS
FREDERICKSBRG* SUNNY     41   7  24 N10       30.22S
STAFFORD*      SUNNY     38   3  23 N14G20    30.27S

$$

NCZ024-NYZ072-PAZ021-071-VAZ022-071-282100-
OTHER REGIONAL OBSERVATIONS

CITY           SKY/WX    TMP DP  RH WIND       PRES   REMARKS
NEW YORK CITY  SUNNY     33   8  35 NW8       30.09R WCI  26
PHILADELPHIA   SUNNY     34   1  24 NW14      30.15R WCI  25
PITTSBURGH     MOSUNNY   24   8  50 SW3       30.29F
ROANOKE        SUNNY     43   7  22 N9        30.22S
RICHMOND       SUNNY     43   3  19 N14       30.21S
RALEIGH        SUNNY     45  11  25 VRB6      30.21S

$$

ANZ530>537-282100-
MARINE OBSERVATIONS

STATION/POSITION TIME  TEMP    WIND        PRES
                       AIR SEA DIR/SP/G
                 (UTC) (F)     (DEG/KT/KT) (MB)
THOMAS PT LIGHT  2000   35 37  330/ 13/ 16 1023.4R
BALT KEY BRIDGE  2000   35     310/ 15/ 17 1022.2R
COVE POINT       2000   34     340/ 15/ 18 1022.0R
LEWISETTA        2000   34 37  300/ 18/ 21 1022.6R
SOLOMONS ISLAND  2000      37                N/A
PINEY POINT      2000          320/ 22/ 23   N/A

$$



USA.gov is the U.S. government's official web portal to all federal, state and local government web resources and services.